When you browse on this site, cookies collect data to enhance your experience and personalize the content and advertising you see.
Visit our Privacy Policy to learn more. By continuing to use the site, you agree to this use of cookies and data.

Hourly Weather Karlino

Today, 10 July, Friday

Time Temperature Precipitation Wind Pressure Humidity
00:00 +13°C° 0 mm 3 mps 743 mmHg 91%
01:00 +12°C° 0 mm 3 mps 744 mmHg 91%
02:00 +13°C° 0 mm 2 mps 744 mmHg 92%
03:00 +12°C° 0 mm 2 mps 744 mmHg 92%
04:00 +13°C° 0 mm 2 mps 745 mmHg 91%
05:00 +13°C° 0 mm 2 mps 745 mmHg 90%
06:00 +13°C° 0 mm 2 mps 745 mmHg 89%
07:00 +15°C° 0 mm 2 mps 745 mmHg 84%
08:00 +16°C° 0 mm 2 mps 746 mmHg 78%
09:00 +18°C° 0 mm 2 mps 746 mmHg 72%
10:00 +19°C° 0 mm 2 mps 746 mmHg 67%
11:00 +20°C° 0 mm 2 mps 746 mmHg 63%
12:00 +20°C° 0 mm 2 mps 746 mmHg 59%
13:00 +21°C° 0 mm 2 mps 746 mmHg 59%
14:00 +21°C° 0 mm 2 mps 746 mmHg 58%
15:00 +23°C° 0 mm 2 mps 746 mmHg 58%
16:00 +21°C° 0 mm 2 mps 746 mmHg 60%
17:00 +21°C° 0 mm 2 mps 746 mmHg 63%
18:00 +21°C° 0 mm 2 mps 746 mmHg 65%
19:00 +21°C° 0 mm 1 mps 747 mmHg 69%
20:00 +19°C° 0 mm 1 mps 747 mmHg 73%
21:00 +16°C° 0 mm 1 mps 747 mmHg 77%
22:00 +16°C° 0 mm 1 mps 747 mmHg 78%
23:00 +16°C° 0 mm 1 mps 747 mmHg 79%

Tomorrow, 11 July, Saturday

Time Temperature Precipitation Wind Pressure Humidity
00:00 +15°C° 0 mm 2 mps 747 mmHg 79%
01:00 +15°C° 0 mm 2 mps 747 mmHg 80%
02:00 +15°C° 0 mm 2 mps 747 mmHg 81%
03:00 +14°C° 0 mm 2 mps 747 mmHg 82%
04:00 +15°C° 0 mm 2 mps 747 mmHg 83%
05:00 +14°C° 0 mm 3 mps 747 mmHg 84%
06:00 +14°C° 0 mm 3 mps 747 mmHg 85%
07:00 +17°C° 0 mm 3 mps 747 mmHg 81%
08:00 +18°C° 0 mm 4 mps 747 mmHg 77%
09:00 +20°C° 0 mm 4 mps 748 mmHg 74%
10:00 +21°C° 0 mm 4 mps 747 mmHg 72%
11:00 +22°C° 0 mm 4 mps 747 mmHg 70%
12:00 +23°C° 0 mm 5 mps 747 mmHg 68%
13:00 +23°C° 0 mm 4 mps 747 mmHg 68%
14:00 +25°C° 0 mm 4 mps 747 mmHg 68%
15:00 +25°C° 0 mm 4 mps 747 mmHg 68%
16:00 +25°C° 0 mm 4 mps 746 mmHg 70%
17:00 +25°C° 0 mm 3 mps 746 mmHg 73%
18:00 +25°C° 0 mm 3 mps 746 mmHg 75%
19:00 +22°C° 0 mm 3 mps 746 mmHg 78%
20:00 +21°C° 0 mm 3 mps 746 mmHg 82%
21:00 +20°C° 0 mm 2 mps 746 mmHg 85%
22:00 +19°C° 0 mm 2 mps 746 mmHg 86%
23:00 +18°C° 0 mm 2 mps 746 mmHg 86%

Day after tomorrow, 12 July, Sunday

Time Temperature Precipitation Wind Pressure Humidity
00:00 +18°C° 0 mm 2 mps 746 mmHg 87%
01:00 +18°C° 0 mm 2 mps 745 mmHg 87%
02:00 +17°C° 0 mm 2 mps 745 mmHg 87%
03:00 +17°C° 0 mm 2 mps 745 mmHg 87%
04:00 +17°C° 0 mm 2 mps 745 mmHg 86%
05:00 +18°C° 0 mm 2 mps 745 mmHg 86%
06:00 +18°C° 0 mm 2 mps 745 mmHg 86%
07:00 +19°C° 0 mm 2 mps 745 mmHg 81%
08:00 +21°C° 0 mm 2 mps 745 mmHg 77%
09:00 +23°C° 0 mm 2 mps 745 mmHg 72%
10:00 +24°C° 0 mm 2 mps 744 mmHg 69%
11:00 +25°C° 0 mm 2 mps 744 mmHg 66%
12:00 +26°C° 0 mm 2 mps 744 mmHg 63%
13:00 +26°C° 0 mm 2 mps 744 mmHg 61%
14:00 +27°C° 0 mm 2 mps 743 mmHg 60%
15:00 +27°C° 0 mm 2 mps 743 mmHg 59%
16:00 +27°C° 0 mm 2 mps 743 mmHg 61%
17:00 +27°C° 0 mm 2 mps 742 mmHg 62%
18:00 +27°C° 0 mm 1 mps 742 mmHg 64%
19:00 +25°C° 0 mm 1 mps 741 mmHg 67%
20:00 +23°C° 0 mm 1 mps 741 mmHg 71%
21:00 +21°C° 0 mm 1 mps 741 mmHg 74%
22:00 +20°C° 0 mm 1 mps 741 mmHg 75%
23:00 +20°C° 0 mm 1 mps 741 mmHg 77%

13 July, Monday

Time Temperature Precipitation Wind Pressure Humidity
00:00 +19°C° 0 mm 1 mps 740 mmHg 78%
01:00 +19°C° 0 mm 1 mps 740 mmHg 79%
02:00 +17°C° 0 mm 2 mps 739 mmHg 80%
03:00 +17°C° 0 mm 2 mps 739 mmHg 81%
04:00 +17°C° 0 mm 2 mps 738 mmHg 83%
05:00 +18°C° 0 mm 2 mps 738 mmHg 84%
06:00 +18°C° 0 mm 2 mps 738 mmHg 85%
07:00 +19°C° 0.1 mm 3 mps 737 mmHg 84%
08:00 +21°C° 0.1 mm 3 mps 737 mmHg 82%
09:00 +22°C° 0.1 mm 4 mps 737 mmHg 80%
10:00 +22°C° 0.6 mm 4 mps 737 mmHg 83%
11:00 +22°C° 0.6 mm 4 mps 736 mmHg 86%
12:00 +22°C° 0.6 mm 4 mps 736 mmHg 89%
13:00 +22°C° 1.2 mm 3 mps 735 mmHg 89%
14:00 +23°C° 1.2 mm 2 mps 735 mmHg 89%
15:00 +23°C° 1.2 mm 2 mps 734 mmHg 89%
16:00 +23°C° 1.7 mm 2 mps 734 mmHg 89%
17:00 +23°C° 1.7 mm 2 mps 733 mmHg 90%
18:00 +22°C° 1.7 mm 3 mps 733 mmHg 90%
19:00 +21°C° 1.6 mm 2 mps 733 mmHg 92%
20:00 +20°C° 1.6 mm 2 mps 733 mmHg 94%
21:00 +20°C° 1.6 mm 2 mps 733 mmHg 96%
22:00 +19°C° 1.7 mm 2 mps 732 mmHg 96%
23:00 +19°C° 1.7 mm 2 mps 732 mmHg 97%

14 July, Tuesday

Time Temperature Precipitation Wind Pressure Humidity
00:00 +19°C° 1.7 mm 2 mps 732 mmHg 98%
01:00 +19°C° 1.3 mm 2 mps 732 mmHg 98%
02:00 +19°C° 1.3 mm 3 mps 732 mmHg 98%
03:00 +19°C° 1.3 mm 3 mps 731 mmHg 98%
04:00 +19°C° 0.9 mm 3 mps 731 mmHg 97%
05:00 +19°C° 0.9 mm 4 mps 731 mmHg 97%
06:00 +18°C° 0.9 mm 4 mps 731 mmHg 96%
07:00 +17°C° 0.1 mm 5 mps 732 mmHg 95%
08:00 +17°C° 0.1 mm 5 mps 732 mmHg 94%
09:00 +17°C° 0.1 mm 5 mps 732 mmHg 93%
10:00 +17°C° 0 mm 5 mps 732 mmHg 91%
11:00 +17°C° 0 mm 5 mps 732 mmHg 90%
12:00 +18°C° 0 mm 4 mps 733 mmHg 89%
13:00 +17°C° 0 mm 5 mps 733 mmHg 88%
14:00 +17°C° 0 mm 5 mps 732 mmHg 88%
15:00 +17°C° 0 mm 5 mps 732 mmHg 88%
16:00 +17°C° 0 mm 5 mps 732 mmHg 88%
17:00 +17°C° 0 mm 5 mps 732 mmHg 88%
18:00 +16°C° 0 mm 5 mps 732 mmHg 89%
19:00 +16°C° 0.1 mm 5 mps 733 mmHg 88%
20:00 +16°C° 0.1 mm 5 mps 733 mmHg 88%
21:00 +16°C° 0.1 mm 5 mps 733 mmHg 88%
22:00 +15°C° 0.1 mm 5 mps 733 mmHg 88%
23:00 +15°C° 0.1 mm 5 mps 733 mmHg 88%

15 July, Wednesday

Time Temperature Precipitation Wind Pressure Humidity
00:00 +15°C° 0.1 mm 5 mps 733 mmHg 88%
01:00 +14°C° 1 mm 5 mps 733 mmHg 90%
02:00 +14°C° 1 mm 6 mps 734 mmHg 93%
03:00 +14°C° 1 mm 7 mps 734 mmHg 95%
04:00 +14°C° 1 mm 7 mps 734 mmHg 94%
05:00 +14°C° 1 mm 7 mps 735 mmHg 94%
06:00 +12°C° 1 mm 7 mps 735 mmHg 94%
07:00 +14°C° 0.2 mm 6 mps 736 mmHg 93%
08:00 +14°C° 0.2 mm 6 mps 736 mmHg 91%
09:00 +14°C° 0.2 mm 6 mps 737 mmHg 90%
10:00 +15°C° 0 mm 6 mps 738 mmHg 83%
11:00 +16°C° 0 mm 6 mps 738 mmHg 75%
12:00 +17°C° 0 mm 6 mps 739 mmHg 68%
13:00 +19°C° 0 mm 6 mps 739 mmHg 66%
14:00 +19°C° 0 mm 6 mps 739 mmHg 64%
15:00 +20°C° 0 mm 6 mps 740 mmHg 62%
16:00 +19°C° 0 mm 5 mps 740 mmHg 66%
17:00 +19°C° 0 mm 4 mps 740 mmHg 69%
18:00 +19°C° 0 mm 3 mps 740 mmHg 72%
19:00 +18°C° 0 mm 3 mps 741 mmHg 75%
20:00 +17°C° 0 mm 3 mps 741 mmHg 79%
21:00 +14°C° 0 mm 3 mps 741 mmHg 82%
22:00 +14°C° 0 mm 3 mps 741 mmHg 83%
23:00 +13°C° 0 mm 3 mps 741 mmHg 84%
Show more